Location: Chuathbaluk
(61.5726°N, 159.2454°W)
Time: 13:40:08
(UTC+00:00)

XW-2F - Pass Details

Date: 18 January 2021
Orbit: 500 x 520 km, 97.5° (Epoch: 01 March)

Event Time Altitude Azimuth Distance (km) Brightness Sun altitude
Rises 05:19:03 0° 222° (SW) 2,614 ? -21.7°
Reaches altitude 10° 05:22:24 10° 255° (WSW) 1,740 ? -22.1°
Maximum altitude 05:23:49 12° 278° (W) 1,634 ? -22.2°
Drops below altitude 10° 05:25:15 10° 300° (WNW) 1,750 ? -22.4°
Sets 05:28:40 0° 333° (NNW) 2,650 ? -22.8°
